TimeCST,TemperatureF,Dew PointF,Humidity,Sea Level PressureIn,VisibilityMPH,Wind Direction,Wind SpeedMPH,Gust SpeedMPH,PrecipitationIn,Events,Conditions,WindDirDegrees,DateUTC
1:15 AM,32.0,17.6,55,30.23,10.0,Calm,Calm,-,N/A,,Clear,0,2012-12-13 07:15:00
1:35 AM,30.2,15.8,55,30.24,10.0,Calm,Calm,-,N/A,,Clear,0,2012-12-13 07:35:00
1:56 AM,32.0,15.8,51,30.24,10.0,South,3.5,-,N/A,,Clear,180,2012-12-13 07:56:00
2:15 AM,33.8,15.8,48,30.24,10.0,South,4.6,-,N/A,,Clear,180,2012-12-13 08:15:00
2:35 AM,35.6,15.8,44,30.24,10.0,South,4.6,-,N/A,,Clear,170,2012-12-13 08:35:00
2:55 AM,35.6,15.8,44,30.24,10.0,South,5.8,-,N/A,,Clear,180,2012-12-13 08:55:00
3:15 AM,35.6,17.6,48,30.23,10.0,South,6.9,-,N/A,,Clear,170,2012-12-13 09:15:00
3:35 AM,35.6,15.8,44,30.23,10.0,SSE,8.1,-,N/A,,Clear,160,2012-12-13 09:35:00
3:55 AM,35.6,15.8,44,30.22,10.0,SSE,5.8,-,N/A,,Clear,160,2012-12-13 09:55:00
4:15 AM,35.6,15.8,44,30.22,10.0,South,8.1,-,N/A,,Clear,170,2012-12-13 10:15:00
4:35 AM,35.6,15.8,44,30.21,10.0,South,8.1,-,N/A,,Clear,170,2012-12-13 10:35:00
4:55 AM,35.6,15.8,44,30.22,10.0,South,6.9,-,N/A,,Clear,170,2012-12-13 10:55:00
5:16 AM,33.8,15.8,48,30.22,10.0,South,6.9,-,N/A,,Clear,170,2012-12-13 11:16:00
5:35 AM,33.8,15.8,48,30.21,10.0,South,8.1,-,N/A,,Clear,170,2012-12-13 11:35:00
5:55 AM,35.6,15.8,44,30.22,10.0,South,6.9,-,N/A,,Clear,180,2012-12-13 11:55:00
6:16 AM,35.6,15.8,44,30.22,10.0,South,5.8,-,N/A,,Clear,180,2012-12-13 12:16:00
6:35 AM,35.6,15.8,44,30.22,10.0,South,6.9,-,N/A,,Clear,180,2012-12-13 12:35:00
6:55 AM,33.8,15.8,48,30.22,10.0,South,5.8,-,N/A,,Clear,170,2012-12-13 12:55:00
7:16 AM,33.8,15.8,48,30.22,10.0,SSE,5.8,-,N/A,,Clear,160,2012-12-13 13:16:00
7:35 AM,32.0,15.8,51,30.22,10.0,SSE,5.8,-,N/A,,Clear,150,2012-12-13 13:35:00
7:55 AM,35.6,17.6,48,30.23,10.0,SSE,5.8,-,N/A,,Clear,160,2012-12-13 13:55:00
8:15 AM,37.4,17.6,45,30.23,10.0,South,4.6,-,N/A,,Clear,170,2012-12-13 14:15:00
8:36 AM,39.2,19.4,45,30.23,10.0,South,4.6,-,N/A,,Clear,170,2012-12-13 14:36:00
8:55 AM,42.8,19.4,39,30.23,10.0,South,8.1,-,N/A,,Clear,180,2012-12-13 14:55:00
9:15 AM,44.6,19.4,37,30.23,10.0,South,9.2,-,N/A,,Clear,170,2012-12-13 15:15:00
9:35 AM,46.4,19.4,34,30.24,10.0,South,11.5,-,N/A,,Clear,190,2012-12-13 15:35:00
9:55 AM,48.2,19.4,32,30.24,10.0,SSW,12.7,-,N/A,,Clear,200,2012-12-13 15:55:00
10:15 AM,50.0,19.4,30,30.25,10.0,SSW,12.7,19.6,N/A,,Clear,200,2012-12-13 16:15:00
10:35 AM,51.8,19.4,28,30.24,10.0,South,15.0,18.4,N/A,,Clear,190,2012-12-13 16:35:00
10:55 AM,51.8,19.4,28,30.24,10.0,SSW,17.3,23.0,N/A,,Clear,200,2012-12-13 16:55:00
11:15 AM,53.6,21.2,28,30.24,10.0,SSW,13.8,21.9,N/A,,Clear,200,2012-12-13 17:15:00
11:55 AM,53.6,21.2,28,30.23,10.0,South,15.0,21.9,N/A,,Clear,190,2012-12-13 17:55:00
12:55 PM,55.4,23.0,29,30.21,10.0,SSW,12.7,18.4,N/A,,Clear,210,2012-12-13 18:55:00
1:15 PM,55.4,23.0,29,30.20,10.0,SSW,13.8,-,N/A,,Clear,200,2012-12-13 19:15:00
1:55 PM,57.2,23.0,27,30.20,10.0,South,16.1,20.7,N/A,,Clear,190,2012-12-13 19:55:00
2:15 PM,57.2,23.0,27,30.19,10.0,South,17.3,-,N/A,,Clear,190,2012-12-13 20:15:00
2:35 PM,57.2,23.0,27,30.18,10.0,South,16.1,20.7,N/A,,Clear,190,2012-12-13 20:35:00
2:55 PM,57.2,21.2,25,30.17,10.0,South,12.7,18.4,N/A,,Clear,190,2012-12-13 20:55:00
3:15 PM,57.2,21.2,25,30.17,10.0,South,12.7,-,N/A,,Clear,170,2012-12-13 21:15:00
3:35 PM,55.4,21.2,26,30.16,10.0,South,11.5,19.6,N/A,,Clear,190,2012-12-13 21:35:00
4:15 PM,55.4,23.0,29,30.14,10.0,South,8.1,-,N/A,,Clear,180,2012-12-13 22:15:00
4:35 PM,55.4,21.2,26,30.15,10.0,South,6.9,-,N/A,,Clear,190,2012-12-13 22:35:00
7:35 PM,44.6,21.2,39,30.14,10.0,South,5.8,-,N/A,,Clear,170,2012-12-14 01:35:00
8:15 PM,42.8,21.2,42,30.14,10.0,South,6.9,-,N/A,,Clear,180,2012-12-14 02:15:00
8:36 PM,42.8,23.0,46,30.14,10.0,South,6.9,-,N/A,,Clear,170,2012-12-14 02:36:00
8:55 PM,44.6,21.2,39,30.15,10.0,South,5.8,-,N/A,,Clear,180,2012-12-14 02:55:00
9:15 PM,42.8,21.2,42,30.15,10.0,South,5.8,-,N/A,,Clear,180,2012-12-14 03:15:00
9:55 PM,42.8,21.2,42,30.16,10.0,South,5.8,-,N/A,,Clear,180,2012-12-14 03:55:00
10:15 PM,42.8,23.0,46,30.17,10.0,South,9.2,-,N/A,,Clear,180,2012-12-14 04:15:00
10:35 PM,42.8,21.2,42,30.16,10.0,South,6.9,-,N/A,,Clear,180,2012-12-14 04:35:00
11:15 PM,41.0,21.2,45,30.15,10.0,SSE,6.9,-,N/A,,Clear,160,2012-12-14 05:15:00
11:55 PM,42.8,21.2,42,30.16,10.0,South,6.9,-,N/A,,Clear,190,2012-12-14 05:55:00